EW8698 Weather Reports


Display with metric or nautical units.
time (UTC)temp
F
wind
direction
speed
MPH
gust
MPH
rain 1hr
in
rain 24hr
in
rain mn
in
humidity
%
barometer
mb
20200224181204 52 241 7.0 10.0 0.00 0.00 0.00 53 1016.0
20200224180205 52 263 3.0 6.0 0.00 0.00 0.00 57 1016.2
20200224175204 51 281 5.0 6.0 0.00 0.00 0.00 58 1016.4
20200224174204 52 271 4.0 5.0 0.00 0.00 0.00 57 1016.7
20200224173204 51 241 3.0 11.0 0.00 0.00 0.00 55 1016.6
20200224172205 51 255 5.0 9.0 0.00 0.00 0.00 57 1017.1
20200224171204 52 250 3.0 8.0 0.00 0.00 0.00 56 1017.2
20200224170205 51 249 5.0 12.0 0.00 0.00 0.00 57 1017.5
20200224165204 51 267 5.0 13.0 0.00 0.00 0.00 59 1017.7
20200224164205 51 234 8.0 13.0 0.00 0.00 0.00 56 1017.8
20200224163204 51 239 8.0 12.0 0.00 0.00 0.00 57 1018.1
20200224162205 51 265 2.0 7.0 0.00 0.00 0.00 57 1018.2
20200224161204 50 257 3.0 7.0 0.00 0.00 0.00 60 1018.2
20200224160204 49 308 2.0 5.0 0.00 0.00 0.00 61 1018.3
20200224155204 49 254 4.0 8.0 0.00 0.00 0.00 62 1018.3
20200224154204 49 263 4.0 9.0 0.00 0.00 0.00 59 1018.4
20200224153205 49 273 5.0 9.0 0.00 0.00 0.00 60 1018.4
20200224152204 48 250 5.0 11.0 0.00 0.00 0.00 57 1018.5
20200224151204 47 249 4.0 11.0 0.00 0.00 0.00 58 1018.6
20200224150204 47 222 3.0 6.0 0.00 0.00 0.00 54 1018.5
20200224145204 47 227 4.0 6.0 0.00 0.00 0.00 56 1018.5
20200224144205 46 236 3.0 6.0 0.00 0.00 0.00 56 1018.4
20200224143204 46 227 3.0 6.0 0.00 0.00 0.00 62 1018.5
20200224142204 45 310 1.0 4.0 0.00 0.00 0.00 64 1018.4
20200224141204 44 193 3.0 4.0 0.00 0.00 0.00 67 1018.6
20200224140204 44 234 1.0 4.0 0.00 0.00 0.00 68 1018.6
20200224135204 44 230 1.0 4.0 0.00 0.00 0.00 69 1018.5
20200224134204 43 166 1.0 4.0 0.00 0.00 0.00 75 1018.5
20200224133205 43 300 2.0 4.0 0.00 0.00 0.00 71 1018.3
20200224132205 42 31 2.0 4.0 0.00 0.00 0.00 70 1018.2
20200224131205 42 297 2.0 6.0 0.00 0.00 0.00 76 1018.3
20200224130204 42 259 3.0 6.0 0.00 0.00 0.00 78 1018.3
20200224125205 41 256 3.0 3.0 0.00 0.00 0.00 76 1018.3
20200224124205 41 161 0.0 6.0 0.00 0.00 0.00 80 1018.0
20200224123205 41 201 4.0 4.0 0.00 0.00 0.00 85 1017.9
20200224122204 41 206 3.0 3.0 0.00 0.00 0.00 85 1017.7
20200224121204 40 36 2.0 3.0 0.00 0.00 0.00 85 1017.4
20200224120205 41 296 2.0 3.0 0.00 0.00 0.00 84 1017.5
20200224115204 40 241 2.0 3.0 0.00 0.00 0.00 82 1017.5
20200224114205 40 286 2.0 3.0 0.00 0.00 0.00 82 1017.4
20200224113205 40 281 3.0 2.0 0.00 0.00 0.00 80 1017.5
20200224112204 40 243 0.0 2.0 0.00 0.00 0.00 82 1017.6
20200224111204 40 224 1.0 2.0 0.00 0.00 0.00 84 1017.5
20200224110205 39 280 1.0 2.0 0.00 0.00 0.00 82 1017.5
20200224105205 39 217 1.0 2.0 0.00 0.00 0.00 82 1017.4
20200224104204 39 196 2.0 2.0 0.00 0.00 0.00 82 1017.3
20200224103204 39 209 1.0 2.0 0.00 0.00 0.00 83 1017.4
20200224102205 40 328 1.0 3.0 0.00 0.00 0.00 80 1017.3
20200224101205 40 246 1.0 3.0 0.00 0.00 0.00 79 1017.4
20200224100204 40 274 3.0 3.0 0.00 0.00 0.00 79 1017.5
20200224095205 40 332 2.0 2.0 0.00 0.00 0.00 78 1017.4
20200224094203 39 345 1.0 2.0 0.00 0.00 0.00 77 1017.3
20200224093204 39 220 1.0 2.0 0.00 0.00 0.00 77 1017.2
20200224092204 39 227 1.0 2.0 0.00 0.00 0.00 77 1017.3
20200224091204 39 246 1.0 2.0 0.00 0.00 0.00 78 1017.1
20200224090205 39 205 1.0 2.0 0.00 0.00 0.00 76 1017.2
20200224085205 39 234 2.0 3.0 0.00 0.00 0.00 81 1017.3
20200224084205 40 214 2.0 2.0 0.00 0.00 0.00 82 1017.3
20200224083205 39 207 2.0 2.0 0.00 0.00 0.00 84 1017.5
20200224082204 40 321 1.0 2.0 0.00 0.00 0.00 83 1017.5
20200224081206 39 135 1.0 2.0 0.00 0.00 0.00 85 1017.5
20200224080205 39 208 2.0 4.0 0.00 0.00 0.00 83 1017.7
20200224075205 40 245 2.0 5.0 0.00 0.00 0.00 82 1017.9
20200224074204 40 299 3.0 4.0 0.00 0.00 0.00 78 1017.9
20200224073204 40 210 2.0 2.0 0.00 0.00 0.00 79 1018.0
20200224072204 40 304 1.0 2.0 0.00 0.00 0.00 80 1018.3
20200224071204 41 233 1.0 2.0 0.00 0.00 0.00 80 1018.4
20200224070205 41 229 1.0 2.0 0.00 0.00 0.00 78 1018.5
20200224065205 41 170 1.0 2.0 0.00 0.00 0.00 73 1018.4
20200224064204 41 218 1.0 2.0 0.00 0.00 0.00 70 1018.4
20200224063205 41 284 2.0 2.0 0.00 0.00 0.00 70 1018.5
20200224062204 42 318 2.0 2.0 0.00 0.00 0.00 64 1018.5
20200224061204 42 189 1.0 2.0 0.00 0.00 0.00 67 1018.4
20200224060204 42 183 2.0 2.0 0.00 0.00 0.00 69 1018.3
20200224055208 43 233 1.0 2.0 0.00 0.00 0.00 72 1018.4
20200224054205 43 279 1.0 2.0 0.00 0.00 0.00 72 1018.5
20200224053205 43 220 1.0 3.0 0.00 0.00 0.00 68 1018.5
20200224052205 44 288 2.0 3.0 0.00 0.00 0.00 58 1018.6
20200224051204 46 227 1.0 3.0 0.00 0.00 0.00 50 1018.5
20200224050204 45 300 1.0 3.0 0.00 0.00 0.00 57 1018.5
20200224045205 45 286 1.0 3.0 0.00 0.00 0.00 65 1018.8
20200224044204 46 310 2.0 3.0 0.00 0.00 0.00 51 1018.8
20200224043204 47 280 1.0 3.0 0.00 0.00 0.00 47 1018.9
20200224042205 47 208 1.0 4.0 0.00 0.00 0.00 44 1018.9
20200224041204 47 217 2.0 4.0 0.00 0.00 0.00 44 1019.0
20200224040204 48 236 2.0 5.0 0.00 0.00 0.00 44 1019.0
20200224035203 48 238 1.0 5.0 0.00 0.00 0.00 44 1019.0
20200224034205 48 203 1.0 4.0 0.00 0.00 0.00 42 1019.0
20200224033204 49 229 2.0 5.0 0.00 0.00 0.00 42 1019.2
20200224032205 49 231 2.0 5.0 0.00 0.00 0.00 41 1019.3
20200224031203 49 216 2.0 6.0 0.00 0.00 0.00 43 1019.3
20200224030204 49 223 3.0 6.0 0.00 0.00 0.00 44 1019.2
20200224025204 49 227 3.0 5.0 0.00 0.00 0.00 44 1019.2
20200224024204 50 194 2.0 6.0 0.00 0.00 0.00 41 1019.2
20200224023206 50 229 2.0 9.0 0.00 0.00 0.00 40 1019.3
20200224022204 51 204 2.0 9.0 0.00 0.00 0.00 37 1019.3
20200224021205 51 187 3.0 6.0 0.00 0.00 0.00 38 1019.3
20200224020204 51 200 3.0 6.0 0.00 0.00 0.00 37 1019.3
20200224015204 51 207 2.0 5.0 0.00 0.00 0.00 37 1019.3
20200224014204 51 215 2.0 5.0 0.00 0.00 0.00 39 1019.2
20200224013204 51 206 1.0 5.0 0.00 0.00 0.00 39 1019.2
20200224012204 51 210 2.0 5.0 0.00 0.00 0.00 36 1019.2
20200224011204 52 192 3.0 5.0 0.00 0.00 0.00 35 1019.5
20200224010205 53 203 2.0 5.0 0.00 0.00 0.00 33 1019.3
20200224005205 53 184 2.0 5.0 0.00 0.00 0.00 33 1019.3
20200224004205 53 184 1.0 4.0 0.00 0.00 0.00 34 1019.3
20200224003205 53 212 2.0 4.0 0.00 0.00 0.00 36 1019.5
20200224002205 54 212 2.0 5.0 0.00 0.00 0.00 35 1019.3
20200224001204 54 213 2.0 5.0 0.00 0.00 0.00 34 1019.2
20200224000205 54 217 2.0 3.0 0.00 0.00 0.00 34 1019.2
20200223235204 55 198 2.0 4.0 0.00 0.00 0.00 34 1019.1
20200223234204 56 175 1.0 4.0 0.00 0.00 0.00 30 1019.0
20200223233204 56 179 2.0 6.0 0.00 0.00 0.00 30 1018.9
20200223232204 57 175 2.0 7.0 0.00 0.00 0.00 29 1018.9
20200223231204 58 197 3.0 6.0 0.00 0.00 0.00 28 1019.0
20200223230204 58 162 2.0 8.0 0.00 0.00 0.00 28 1018.8
20200223225204 58 174 2.0 9.0 0.00 0.00 0.00 28 1018.6
20200223224205 59 176 4.0 9.0 0.00 0.00 0.00 29 1018.7
20200223223204 59 180 1.0 9.0 0.00 0.00 0.00 29 1018.6
20200223222205 59 198 3.0 9.0 0.00 0.00 0.00 28 1018.7
20200223221205 60 198 2.0 8.0 0.00 0.00 0.00 28 1018.7
20200223220204 61 185 3.0 6.0 0.00 0.00 0.00 24 1018.7
20200223215204 61 174 2.0 7.0 0.00 0.00 0.00 26 1018.8
20200223214205 61 208 3.0 7.0 0.00 0.00 0.00 26 1018.7
20200223213204 61 222 2.0 8.0 0.00 0.00 0.00 25 1018.7
20200223212204 61 178 3.0 8.0 0.00 0.00 0.00 23 1018.8
20200223211204 60 167 3.0 16.0 0.00 0.00 0.00 25 1018.8
20200223210204 61 238 5.0 15.0 0.00 0.00 0.00 25 1018.8
20200223205205 62 181 4.0 10.0 0.00 0.00 0.00 23 1018.9
20200223204204 62 207 2.0 11.0 0.00 0.00 0.00 23 1019.0
20200223203205 62 236 6.0 11.0 0.00 0.00 0.00 21 1019.1
20200223202204 62 206 2.0 10.0 0.00 0.00 0.00 23 1019.2
20200223201205 61 226 4.0 10.0 0.00 0.00 0.00 23 1019.3
20200223200205 60 253 6.0 5.0 0.00 0.00 0.00 21 1019.5
20200223195204 60 284 2.0 5.0 0.00 0.00 0.00 20 1019.5
20200223194204 59 252 4.0 6.0 0.00 0.00 0.00 20 1019.6
20200223193204 58 354 2.0 9.0 0.00 0.00 0.00 18 1019.6
20200223192204 57 323 5.0 9.0 0.00 0.00 0.00 22 1019.8
20200223191204 58 44 3.0 6.0 0.00 0.00 0.00 22 1019.8
20200223190204 57 25 4.0 8.0 0.00 0.00 0.00 19 1020.1
20200223185205 57 32 4.0 8.0 0.00 0.00 0.00 20 1020.3
20200223184204 56 37 4.0 8.0 0.00 0.00 0.00 21 1020.5
20200223183204 56 36 4.0 6.0 0.00 0.00 0.00 20 1020.7
20200223182204 55 27 4.0 6.0 0.00 0.00 0.00 19 1021.0